| time (UTC) | temp F | wind direction | speed MPH | gust MPH | rain 1hr in | rain 24hr in | rain mn in | humidity % | barometer mb |
| 20260507130026 | 48 | 271 | 4.0 | 0.0 | 0.00 | 0.00 | 0.06 | 65 | 1016.1 |
| 20260507124524 | 49 | 228 | 5.0 | 0.0 | 0.00 | 0.00 | 0.06 | 64 | 1016.1 |
| 20260507123016 | 48 | 243 | 5.0 | 0.0 | 0.00 | 0.00 | 0.06 | 65 | 1016.2 |
| 20260507121513 | 48 | 226 | 5.0 | 0.0 | 0.00 | 0.00 | 0.06 | 65 | 1016.4 |
| 20260507120012 | 48 | 256 | 6.0 | 0.0 | 0.00 | 0.00 | 0.06 | 65 | 1016.1 |
| 20260507114512 | 49 | 229 | 5.0 | 0.0 | 0.00 | 0.00 | 0.06 | 65 | 1016.3 |
| 20260507113016 | 49 | 208 | 4.0 | 0.0 | 0.00 | 0.00 | 0.06 | 65 | 1016.4 |
| 20260507111515 | 49 | 206 | 4.0 | 0.0 | 0.00 | 0.00 | 0.06 | 64 | 1016.3 |
| 20260507110023 | 46 | 209 | 4.0 | 0.0 | 0.00 | 0.00 | 0.06 | 67 | 1016.5 |
| 20260507104508 | 46 | 202 | 4.0 | 0.0 | 0.00 | 0.00 | 0.06 | 66 | 1016.2 |
| 20260507103007 | 46 | 196 | 5.0 | 0.0 | 0.00 | 0.00 | 0.06 | 68 | 1016.1 |
| 20260507101507 | 46 | 232 | 6.0 | 0.0 | 0.00 | 0.00 | 0.06 | 71 | 1016.1 |
| 20260507100009 | 45 | 223 | 7.0 | 0.0 | 0.00 | 0.00 | 0.06 | 72 | 1016.1 |
| 20260507094505 | 48 | 221 | 5.0 | 0.0 | 0.00 | 0.00 | 0.06 | 67 | 1016.1 |
| 20260507093003 | 47 | 165 | 3.0 | 0.0 | 0.00 | 0.00 | 0.06 | 65 | 1016.0 |
| 20260507091501 | 46 | 165 | 3.0 | 0.0 | 0.00 | 0.00 | 0.06 | 65 | 1016.0 |
| 20260507090106 | 45 | 169 | 2.0 | 0.0 | 0.00 | 0.00 | 0.06 | 67 | 1016.0 |
| 20260507084559 | 45 | 170 | 3.0 | 0.0 | 0.00 | 0.00 | 0.06 | 68 | 1016.0 |
| 20260507083059 | 45 | 165 | 3.0 | 0.0 | 0.00 | 0.00 | 0.06 | 69 | 1015.8 |
| 20260507081558 | 45 | 155 | 3.0 | 0.0 | 0.00 | 0.00 | 0.06 | 67 | 1015.6 |
| 20260507074607 | 45 | 150 | 2.0 | 0.0 | 0.00 | 0.00 | 0.06 | 70 | 1015.5 |
| 20260507073050 | 44 | 144 | 3.0 | 0.0 | 0.00 | 0.00 | 0.06 | 74 | 1015.5 |
| 20260507071551 | 43 | 144 | 4.0 | 0.0 | 0.00 | 0.00 | 0.06 | 75 | 1015.5 |
| 20260507070104 | 43 | 129 | 4.0 | 0.0 | 0.00 | 0.00 | 0.06 | 76 | 1015.5 |
| 20260507064544 | 42 | 126 | 4.0 | 0.0 | 0.00 | 0.00 | 0.06 | 77 | 1015.4 |
| 20260507063053 | 41 | 126 | 4.0 | 0.0 | 0.00 | 0.00 | 0.06 | 79 | 1015.3 |
| 20260507061546 | 41 | 119 | 3.0 | 0.0 | 0.00 | 0.00 | 0.06 | 82 | 1015.2 |
| 20260507060044 | 41 | 119 | 4.0 | 0.0 | 0.00 | 0.00 | 0.06 | 82 | 1015.1 |
| 20260507054542 | 40 | 118 | 3.0 | 0.0 | 0.00 | 0.00 | 0.06 | 84 | 1015.0 |
| 20260507053039 | 39 | 118 | 3.0 | 0.0 | 0.00 | 0.00 | 0.06 | 85 | 1015.0 |
| 20260507051536 | 39 | 118 | 2.0 | 0.0 | 0.00 | 0.00 | 0.06 | 86 | 1015.0 |
| 20260507050037 | 38 | 118 | 3.0 | 0.0 | 0.00 | 0.00 | 0.06 | 87 | 1014.9 |
| 20260507044534 | 38 | 119 | 3.0 | 0.0 | 0.00 | 0.00 | 0.06 | 87 | 1014.7 |
| 20260507043032 | 38 | 118 | 3.0 | 0.0 | 0.00 | 0.00 | 0.06 | 88 | 1014.6 |
| 20260507041531 | 38 | 117 | 3.0 | 0.0 | 0.00 | 0.00 | 0.06 | 89 | 1014.5 |
| 20260507040031 | 38 | 117 | 4.0 | 0.0 | 0.00 | 0.00 | 0.06 | 89 | 1014.5 |
| 20260507034535 | 38 | 112 | 3.0 | 0.0 | 0.00 | 0.00 | 0.06 | 89 | 1014.5 |
| 20260507033030 | 38 | 112 | 3.0 | 0.0 | 0.00 | 0.00 | 0.06 | 89 | 1014.5 |
| 20260507031529 | 38 | 112 | 3.0 | 0.0 | 0.00 | 0.00 | 0.06 | 89 | 1014.5 |
| 20260507030030 | 38 | 112 | 2.0 | 0.0 | 0.00 | 0.00 | 0.06 | 89 | 1014.4 |
| 20260507024528 | 38 | 112 | 2.0 | 0.0 | 0.00 | 0.00 | 0.06 | 89 | 1014.4 |
| 20260507023027 | 38 | 112 | 3.0 | 0.0 | 0.00 | 0.00 | 0.06 | 89 | 1014.4 |
| 20260507021529 | 38 | 111 | 4.0 | 0.0 | 0.00 | 0.00 | 0.06 | 89 | 1014.3 |
| 20260507020037 | 38 | 113 | 4.0 | 0.0 | 0.00 | 0.00 | 0.06 | 89 | 1014.1 |
| 20260507014525 | 38 | 114 | 4.0 | 0.0 | 0.00 | 0.00 | 0.06 | 89 | 1014.1 |
| 20260507013040 | 38 | 96 | 3.0 | 0.0 | 0.00 | 0.00 | 0.06 | 89 | 1014.1 |
| 20260507011524 | 38 | 96 | 3.0 | 0.0 | 0.00 | 0.00 | 0.06 | 89 | 1014.0 |
| 20260507010028 | 37 | 98 | 3.0 | 0.0 | 0.00 | 0.00 | 0.06 | 89 | 1014.0 |
| 20260507004524 | 37 | 92 | 3.0 | 0.0 | 0.00 | 0.00 | 0.06 | 89 | 1014.0 |
| 20260507003022 | 36 | 91 | 3.0 | 0.0 | 0.00 | 0.00 | 0.05 | 88 | 1014.0 |
| 20260507001528 | 37 | 360 | 2.0 | 0.0 | 0.00 | 0.00 | 0.05 | 88 | 1014.0 |
| 20260507000020 | 37 | 333 | 2.0 | 0.0 | 0.00 | 0.00 | 0.02 | 87 | 1014.1 |
| 20260506234528 | 36 | 333 | 3.0 | 0.0 | 0.00 | 0.00 | 0.02 | 85 | 1014.0 |
| 20260506233015 | 38 | 35 | 3.0 | 0.0 | 0.00 | 0.00 | 0.00 | 84 | 1014.0 |
| 20260506231515 | 39 | 16 | 2.0 | 0.0 | 0.00 | 0.00 | 0.00 | 84 | 1014.0 |
| 20260506230014 | 38 | 16 | 1.0 | 0.0 | 0.00 | 0.00 | 0.00 | 83 | 1014.0 |
| 20260506224513 | 38 | 16 | 4.0 | 0.0 | 0.00 | 0.00 | 0.00 | 82 | 1014.0 |
| 20260506223010 | 38 | 30 | 3.0 | 0.0 | 0.00 | 0.00 | 0.00 | 81 | 1013.9 |
| 20260506221508 | 39 | 201 | 2.0 | 0.0 | 0.00 | 0.00 | 0.00 | 79 | 1014.0 |
| 20260506220010 | 39 | 201 | 0.0 | 0.0 | 0.00 | 0.00 | 0.03 | 79 | 1013.9 |
| 20260506214504 | 39 | 201 | 2.0 | 0.0 | 0.00 | 0.00 | 0.03 | 79 | 1013.9 |
| 20260506213003 | 39 | 201 | 3.0 | 0.0 | 0.00 | 0.00 | 0.03 | 79 | 1013.8 |
| 20260506211501 | 39 | 205 | 4.0 | 0.0 | 0.00 | 0.00 | 0.03 | 80 | 1013.5 |
| 20260506210005 | 39 | 188 | 5.0 | 0.0 | 0.00 | 0.00 | 0.03 | 78 | 1013.5 |
| 20260506204501 | 39 | 228 | 8.0 | 0.0 | 0.00 | 0.00 | 0.03 | 79 | 1013.5 |
| 20260506203100 | 40 | 219 | 4.0 | 0.0 | 0.00 | 0.00 | 0.03 | 78 | 1013.5 |
| 20260506201603 | 39 | 221 | 3.0 | 0.0 | 0.00 | 0.00 | 0.03 | 76 | 1013.5 |
| 20260506200058 | 40 | 221 | 3.0 | 0.0 | 0.00 | 0.00 | 0.03 | 75 | 1013.5 |
| 20260506194558 | 40 | 221 | 3.0 | 0.0 | 0.00 | 0.00 | 0.03 | 75 | 1013.5 |
| 20260506193057 | 40 | 221 | 3.0 | 0.0 | 0.00 | 0.00 | 0.03 | 76 | 1013.4 |
| 20260506191557 | 40 | 222 | 2.0 | 0.0 | 0.00 | 0.00 | 0.03 | 75 | 1013.4 |
| 20260506190058 | 40 | 222 | 3.0 | 0.0 | 0.00 | 0.00 | 0.03 | 74 | 1013.4 |
| 20260506184607 | 41 | 222 | 3.0 | 0.0 | 0.00 | 0.00 | 0.03 | 73 | 1013.4 |
| 20260506183055 | 41 | 222 | 3.0 | 0.0 | 0.00 | 0.00 | 0.03 | 72 | 1013.4 |
| 20260506181555 | 42 | 229 | 5.0 | 0.0 | 0.00 | 0.00 | 0.03 | 73 | 1013.4 |
| 20260506180055 | 43 | 255 | 5.0 | 0.0 | 0.00 | 0.00 | 0.03 | 73 | 1013.3 |
| 20260506174554 | 43 | 223 | 5.0 | 0.0 | 0.00 | 0.00 | 0.03 | 72 | 1013.3 |
| 20260506173107 | 43 | 215 | 5.0 | 0.0 | 0.00 | 0.00 | 0.03 | 68 | 1013.3 |
| 20260506171557 | 43 | 263 | 3.0 | 0.0 | 0.00 | 0.00 | 0.03 | 68 | 1013.1 |
| 20260506170100 | 43 | 228 | 4.0 | 0.0 | 0.00 | 0.00 | 0.03 | 66 | 1013.2 |
| 20260506164611 | 44 | 246 | 4.0 | 0.0 | 0.00 | 0.00 | 0.03 | 65 | 1013.3 |
| 20260506163058 | 45 | 246 | 5.0 | 0.0 | 0.00 | 0.00 | 0.03 | 62 | 1013.4 |
| 20260506161552 | 45 | 239 | 5.0 | 0.0 | 0.00 | 0.00 | 0.03 | 65 | 1013.3 |
| 20260506160105 | 46 | 238 | 5.0 | 0.0 | 0.00 | 0.00 | 0.03 | 65 | 1013.2 |
| 20260506154553 | 45 | 291 | 7.0 | 0.0 | 0.00 | 0.00 | 0.03 | 66 | 1013.2 |
| 20260506153048 | 45 | 276 | 6.0 | 0.0 | 0.00 | 0.00 | 0.03 | 65 | 1013.1 |
| 20260506151547 | 45 | 301 | 8.0 | 0.0 | 0.00 | 0.00 | 0.03 | 63 | 1013.2 |
| 20260506150047 | 44 | 273 | 10.0 | 0.0 | 0.00 | 0.00 | 0.03 | 63 | 1013.3 |
| 20260506144547 | 44 | 278 | 10.0 | 0.0 | 0.00 | 0.00 | 0.03 | 66 | 1013.4 |
| 20260506143045 | 44 | 265 | 9.0 | 0.0 | 0.00 | 0.00 | 0.03 | 66 | 1013.4 |
| 20260506141604 | 43 | 315 | 9.0 | 0.0 | 0.00 | 0.00 | 0.03 | 66 | 1013.3 |
| 20260506140045 | 45 | 288 | 9.0 | 0.0 | 0.00 | 0.00 | 0.03 | 65 | 1013.3 |
| 20260506134544 | 44 | 284 | 9.0 | 0.0 | 0.00 | 0.00 | 0.03 | 65 | 1013.3 |
| 20260506133043 | 44 | 302 | 10.0 | 0.0 | 0.00 | 0.00 | 0.03 | 66 | 1013.4 |
| 20260506131544 | 44 | 288 | 10.0 | 0.0 | 0.00 | 0.00 | 0.03 | 70 | 1013.3 |